Location: Unspecified
(0.0000°N, 0.0000°E)
Time: 03:43:42
(UTC+00:00)

OTV 5 (USA 277) - Pass Details

Date: 21 November 2017
Orbit: 404 x 417 km, 43.0° (Epoch: 07 September)

Event Time Altitude Azimuth Distance (km) Brightness Sun altitude
Rises 19:21:45 0° 209° (SSW) 2,351 ? -22.4°
Reaches altitude 10° 19:24:01 10° 198° (SSW) 1,486 ? -22.9°
Enters shadow 19:25:30 20° 179° (S) 1,011 ? -23.3°
